AHK680 VHHH-RCTP

Flight info

Callsign AHK680
Flight time N/A
Altitude 33000
Route DALOL V631 ENVAR M750 EXTRA/N0486F290 M750 TONGA TONGA1A
Aircraft A306/H-SDE3FGHIRWY/LB1

Departure

Time 2026-04-30 22:07
Airport Hong Kong International Airport (VHHH)

Arrival

Time N/A
Airport Taiwan Taoyuan International Airport (RCTP)
Time Latitude Longitude Altitude Speed Heading
2026-04-30 21:33 22.30169 113.92433 38 ft 0 kts 341°
2026-04-30 21:56 22.30165 113.92434 38 ft 3 kts 341°
2026-04-30 21:56 22.30140 113.92443 37 ft 4 kts 341°
2026-04-30 21:56 22.30116 113.92452 38 ft 2 kts 341°
2026-04-30 21:56 22.30095 113.92462 35 ft 4 kts 317°
2026-04-30 21:57 22.30084 113.92483 35 ft 4 kts 258°
2026-04-30 21:57 22.30092 113.92509 36 ft 4 kts 251°
2026-04-30 21:57 22.30094 113.92517 37 ft 0 kts 251°
2026-04-30 22:01 22.30094 113.92516 38 ft 1 kts 251°
2026-04-30 22:02 22.30082 113.92479 38 ft 15 kts 250°
2026-04-30 22:02 22.30039 113.92340 38 ft 22 kts 251°
2026-04-30 22:02 22.29982 113.92167 38 ft 21 kts 251°
2026-04-30 22:02 22.30037 113.92065 38 ft 23 kts 339°
2026-04-30 22:03 22.30139 113.91979 38 ft 20 kts 266°
2026-04-30 22:03 22.30082 113.91804 38 ft 26 kts 251°
2026-04-30 22:03 22.30014 113.91594 38 ft 32 kts 250°
2026-04-30 22:03 22.29945 113.91367 38 ft 28 kts 254°
2026-04-30 22:04 22.29887 113.91179 38 ft 29 kts 249°
2026-04-30 22:04 22.29810 113.90977 38 ft 28 kts 248°
2026-04-30 22:04 22.29668 113.90520 38 ft 21 kts 246°
2026-04-30 22:05 22.29626 113.90403 38 ft 16 kts 251°
2026-04-30 22:05 22.29594 113.90292 38 ft 15 kts 253°
2026-04-30 22:05 22.29564 113.90181 38 ft 15 kts 254°
2026-04-30 22:05 22.29534 113.90076 38 ft 15 kts 252°
2026-04-30 22:06 22.29502 113.89973 38 ft 14 kts 252°
2026-04-30 22:06 22.29585 113.89829 36 ft 14 kts
2026-04-30 22:06 22.29647 113.89890 36 ft 12 kts 67°
2026-04-30 22:07 22.29720 113.90112 36 ft 72 kts 71°
2026-04-30 22:07 22.29985 113.90934 41 ft 157 kts 70°
2026-04-30 22:07 22.30400 113.92186 640 ft 175 kts 70°
2026-04-30 22:07 22.30832 113.93456 1235 ft 197 kts 71°
2026-04-30 22:08 22.31298 113.94922 1939 ft 212 kts 72°
2026-04-30 22:08 22.31778 113.96444 3084 ft 215 kts 73°
2026-04-30 22:08 22.32268 113.97989 4269 ft 220 kts 73°
2026-04-30 22:08 22.32775 113.99581 5415 ft 228 kts 72°
2026-04-30 22:09 22.33306 114.01241 6484 ft 240 kts 71°
2026-04-30 22:09 22.33749 114.03020 7511 ft 250 kts 83°
2026-04-30 22:09 22.33667 114.04907 8647 ft 255 kts 105°
2026-04-30 22:09 22.32909 114.06628 9782 ft 256 kts 131°
2026-04-30 22:10 22.31589 114.07920 10697 ft 261 kts 153°
2026-04-30 22:10 22.29878 114.08663 11427 ft 269 kts 173°
2026-04-30 22:10 22.28008 114.08814 12269 ft 274 kts 184°
2026-04-30 22:10 22.26020 114.08777 12745 ft 297 kts 186°
2026-04-30 22:11 22.21569 114.08671 13470 ft 341 kts 184°
2026-04-30 22:11 22.19129 114.08812 13781 ft 364 kts 174°
2026-04-30 22:11 22.16682 114.09770 14037 ft 389 kts 153°
2026-04-30 22:12 22.14612 114.11688 14274 ft 410 kts 132°
2026-04-30 22:12 22.13097 114.14360 14607 ft 424 kts 118°
2026-04-30 22:12 22.11800 114.17247 15038 ft 430 kts 117°
2026-04-30 22:12 22.10486 114.20168 15506 ft 435 kts 118°
2026-04-30 22:13 22.09133 114.23106 15993 ft 439 kts 119°
2026-04-30 22:13 22.07519 114.25894 16477 ft 439 kts 131°
2026-04-30 22:13 22.05304 114.28130 16971 ft 437 kts 145°
2026-04-30 22:13 22.02864 114.30095 17423 ft 439 kts 147°
2026-04-30 22:14 22.00378 114.32035 17872 ft 443 kts 147°
2026-04-30 22:14 21.97873 114.33988 18303 ft 446 kts 147°
2026-04-30 22:14 21.95356 114.35959 18673 ft 449 kts 147°
2026-04-30 22:14 21.92826 114.37945 19032 ft 451 kts 147°
2026-04-30 22:15 21.90285 114.39942 19376 ft 454 kts 147°
2026-04-30 22:15 21.87818 114.42083 19718 ft 459 kts 140°
2026-04-30 22:15 21.85688 114.44672 20052 ft 466 kts 129°
2026-04-30 22:15 21.84069 114.47711 20387 ft 472 kts 116°
2026-04-30 22:16 21.82988 114.51056 20730 ft 476 kts 108°
2026-04-30 22:16 21.82100 114.54495 21044 ft 478 kts 107°
2026-04-30 22:17 21.79454 114.64914 21969 ft 484 kts 107°
2026-04-30 22:17 21.78553 114.68410 22270 ft 486 kts 107°
2026-04-30 22:17 21.76733 114.75441 22839 ft 490 kts 107°
2026-04-30 22:18 21.75813 114.78983 23115 ft 492 kts 107°
2026-04-30 22:18 21.74421 114.86171 23644 ft 498 kts 95°
2026-04-30 22:19 21.74214 114.93650 24078 ft 502 kts 90°
2026-04-30 22:19 21.74239 114.97415 24290 ft 504 kts 90°
2026-04-30 22:19 21.74318 115.04985 24680 ft 508 kts 90°
2026-04-30 22:20 21.74342 115.08788 24883 ft 510 kts 90°
2026-04-30 22:20 21.74355 115.16443 25278 ft 513 kts 90°
2026-04-30 22:20 21.74351 115.20285 25469 ft 514 kts 91°
2026-04-30 22:21 21.74344 115.24136 25658 ft 516 kts 91°
2026-04-30 22:21 21.74335 115.28003 25842 ft 518 kts 91°
2026-04-30 22:21 21.74325 115.31879 26019 ft 519 kts 91°
2026-04-30 22:21 21.74315 115.35764 26164 ft 522 kts 91°
2026-04-30 22:22 21.74304 115.39673 26312 ft 523 kts 91°
2026-04-30 22:22 21.74293 115.43596 26483 ft 525 kts 91°
2026-04-30 22:22 21.74281 115.47524 26659 ft 526 kts 91°
2026-04-30 22:22 21.74268 115.51462 26824 ft 527 kts 91°
2026-04-30 22:23 21.74255 115.55412 27000 ft 528 kts 91°
2026-04-30 22:23 21.74241 115.59361 27238 ft 528 kts 91°
2026-04-30 22:23 21.74226 115.63306 27490 ft 527 kts 91°
2026-04-30 22:23 21.74211 115.67253 27692 ft 528 kts 91°
2026-04-30 22:24 21.74195 115.71201 27918 ft 528 kts 91°
2026-04-30 22:24 21.74179 115.75152 28183 ft 528 kts 91°
2026-04-30 22:24 21.74161 115.79098 28462 ft 527 kts 91°
2026-04-30 22:24 21.74143 115.83042 28735 ft 527 kts 91°
2026-04-30 22:25 21.74123 115.86984 29012 ft 527 kts 91°
2026-04-30 22:25 21.74103 115.90924 29291 ft 527 kts 91°
2026-04-30 22:25 21.74081 115.94863 29566 ft 526 kts 91°
2026-04-30 22:25 21.74059 115.98800 29836 ft 526 kts 91°
2026-04-30 22:26 21.74011 116.06617 30372 ft 526 kts 91°
2026-04-30 22:26 21.73986 116.10542 30647 ft 524 kts 91°
2026-04-30 22:26 21.73960 116.14460 30939 ft 523 kts 91°
2026-04-30 22:27 21.73933 116.18416 31233 ft 522 kts 91°
2026-04-30 22:27 21.73906 116.22266 31526 ft 521 kts 91°
2026-04-30 22:27 21.73848 116.30044 32029 ft 521 kts 91°
2026-04-30 22:28 21.73786 116.37839 32592 ft 520 kts 91°
2026-04-30 22:28 21.73754 116.41721 32908 ft 519 kts 92°
2026-04-30 22:29 21.73652 116.53359 33037 ft 518 kts 92°
2026-04-30 22:29 21.73616 116.57231 33028 ft 518 kts 92°
2026-04-30 22:31 21.75453 116.84202 33037 ft 521 kts 70°
2026-04-30 22:32 21.82045 117.02402 33028 ft 523 kts 68°
2026-04-30 22:33 21.88644 117.20636 33034 ft 523 kts 68°
2026-04-30 22:35 21.95174 117.38829 33030 ft 523 kts 68°
2026-04-30 22:36 22.02848 117.56529 33022 ft 522 kts 57°
2026-04-30 22:37 22.10443 117.69873 33030 ft 522 kts 57°
2026-04-30 22:38 22.18025 117.83229 33035 ft 521 kts 57°
2026-04-30 22:39 22.23685 117.93251 33030 ft 521 kts 57°
2026-04-30 22:40 22.35161 118.13186 33036 ft 520 kts 55°
2026-04-30 22:41 22.44691 118.29689 33043 ft 516 kts 56°
2026-04-30 22:43 22.55931 118.49605 33045 ft 519 kts 56°
2026-04-30 22:44 22.63473 118.62860 33048 ft 518 kts 56°
2026-04-30 22:45 22.74825 118.82837 33047 ft 519 kts 56°
2026-04-30 22:47 22.86137 119.02823 33040 ft 518 kts 56°
2026-04-30 22:48 22.93643 119.16127 33043 ft 518 kts 57°
2026-04-30 22:49 23.04288 119.35058 33036 ft 517 kts 57°
2026-04-30 22:51 23.15516 119.55034 33020 ft 515 kts 54°
2026-04-30 22:51 23.20398 119.60628 33031 ft 508 kts 32°
2026-04-30 22:52 23.23331 119.62651 33041 ft 504 kts 27°
2026-04-30 22:53 23.35399 119.70219 33039 ft 499 kts 26°
2026-04-30 22:53 23.44432 119.75908 33043 ft 499 kts 26°
2026-04-30 22:55 23.59178 119.85843 33042 ft 498 kts 29°
2026-04-30 22:56 23.70892 119.93925 33050 ft 498 kts 29°
2026-04-30 22:57 23.85462 120.03995 33042 ft 496 kts 29°
2026-04-30 22:58 23.97135 120.12081 33041 ft 496 kts 29°
2026-04-30 22:59 24.14635 120.24237 33039 ft 497 kts 29°